OSCAR 3 (OSCAR III) 1 01293U 65016F 10070.67881738 .00000164 00000-0 13574-3 0 7496 2 01293 70.0757 313.2948 0019311 180.2433 179.8634 14.04765760297375 OSCAR 5 (AO-5) 1 04321U 70008B 10070.06009955 -.00000031 00000-0 10000-3 0 2898 2 04321 102.1183 91.1350 0027691 195.2679 164.7550 12.52159123834162 OSCAR 6 (AO-6) 1 06236U 72082B 10071.01284998 -.00000027 00000-0 10000-3 0 2791 2 06236 101.3919 78.5249 0004115 85.7398 274.4140 12.53080418710955 OSCAR 7 (AO-7) 1 07530U 74089B 10070.12080197 -.00000027 00000-0 10000-3 0 7249 2 07530 101.4091 89.7742 0012170 106.3522 253.8882 12.53577891616164 OSCAR 8 (AO-8) 1 10703U 78026B 10070.63937687 -.00000220 00000-0 -12327-3 0 7689 2 10703 98.7912 110.4959 0006495 142.5952 217.5651 13.98858960633411 PHASE 3B (AO-10) 1 14129U 83058B 10068.34561692 .00000211 00000-0 10000-3 0 7224 2 14129 26.0146 106.3802 6074231 305.8216 11.7984 2.05869994173111 UOSAT 2 (UO-11) 1 14781U 84021B 10070.17913676 .00000315 00000-0 48963-4 0 1955 2 14781 98.0679 121.5646 0008841 188.8477 171.2611 14.79776920397315 JAS-1 (FO-12) 1 16909U 86061B 10069.95746341 -.00000083 00000-0 10000-3 0 6949 2 16909 50.0153 61.7744 0011323 163.6253 196.4946 12.44453693 72195 UOSAT 3 (UO-14) 1 20437U 90005B 10070.82325650 .00000043 00000-0 31820-4 0 1581 2 20437 98.3786 24.1345 0011679 94.4051 265.8474 14.31566857 51340 UOSAT 4 (UO-15) 1 20438U 90005C 10070.96476588 .00000000 00000-0 16325-4 0 6541 2 20438 98.4357 18.6403 0010814 124.4057 235.8171 14.30461625 50750 PACSAT (AO-16) 1 20439U 90005D 10071.05637643 .00000043 00000-0 31621-4 0 8437 2 20439 98.3209 32.8434 0011949 94.2081 266.0473 14.31851643 51485 DOVE (DO-17) 1 20440U 90005E 10071.07028140 .00000029 00000-0 26113-4 0 5618 2 20440 98.2951 36.9172 0011987 88.7113 271.5459 14.32156459 51636 WEBERSAT (WO-18) 1 20441U 90005F 10070.41881288 .00000020 00000-0 22892-4 0 678 2 20441 98.3022 35.0878 0012547 94.3266 265.9360 14.31919415 51462 LUSAT (LO-19) 1 20442U 90005G 10070.93001455 .00000034 00000-0 27758-4 0 7539 2 20442 98.2803 38.9190 0012941 90.6321 269.6364 14.32084247 51638 JAS-1B (FO-20) 1 20480U 90013C 10070.57926570 -.00000040 00000-0 -75848-5 0 3960 2 20480 99.0477 306.4158 0539617 285.0982 69.1038 12.83363893941203 INFORMATOR 1 & RS-14 1 21087U 91006A 10070.94930331 .00000058 00000-0 45463-4 0 5281 2 21087 82.9421 207.6638 0033652 256.9514 102.7889 13.75052115959210 COSMOS 2123 & RS-12/13 1 21089U 91007A 10071.07591901 .00000008 00000-0 -73746-5 0 4118 2 21089 82.9178 67.8291 0028110 305.8314 54.0230 13.74491776957998 UOSAT 5 (UO-22) 1 21575U 91050B 10070.40943737 .00000015 00000-0 18753-4 0 7802 2 21575 98.4820 21.0772 0006528 302.2947 57.7608 14.39706524979155 KITSAT 1 (KO-23) 1 22077U 92052B 10069.63714940 -.00000037 00000-0 10000-3 0 9766 2 22077 66.0841 128.6086 0010136 216.1209 143.9122 12.86451696825799 ARSENE (AO-24) 1 22654U 93031B 10062.87101590 -.00000147 00000-0 10000-3 0 3525 2 22654 4.8449 332.3183 2855218 176.1092 186.6624 1.42205195 82811 EYESAT-1 (AO-27) 1 22825U 93061C 10070.35668333 .00000023 00000-0 25726-4 0 4764 2 22825 98.4750 20.8895 0008338 191.5106 168.5902 14.29289216858074 ITAMSAT (IO-26) 1 22826U 93061D 10070.01965423 .00000044 00000-0 34058-4 0 2127 2 22826 98.4679 21.2003 0008641 188.1490 171.9555 14.29543928858138 KITSAT 2 (KO-25) 1 22828U 93061F 10070.83807725 -.00000057 00000-0 -55140-5 0 4101 2 22828 98.4615 21.8386 0010219 160.2194 199.9391 14.29840057826536 POSAT (PO-28) 1 22829U 93061G 10070.46748781 -.00000015 00000-0 10432-4 0 4362 2 22829 98.4575 22.6343 0010300 157.0318 203.1331 14.30239202858507 RADIO ROSTO (RS-15) 1 23439U 94085A 10069.85231529 -.00000039 00000-0 10000-3 0 2707 2 23439 64.8125 193.5822 0156688 1.8880 358.2604 11.27554881626181 JAS-2 (FO-29) 1 24278U 96046B 10069.97039494 -.00000090 00000-0 -55398-4 0 2672 2 24278 98.5204 272.6512 0351245 18.7502 342.6207 13.52947752669821 UNAMSAT-2 (MO-30) 1 24305U 96052B 10070.73122837 .00000054 00000-0 42066-4 0 3666 2 24305 82.9388 156.1751 0028735 228.2871 131.5833 13.73579701677406 TMSAT-1 (TO-31) 1 25396U 98043C 10070.60721034 -.00000017 00000-0 10507-4 0 6443 2 25396 98.3148 89.3641 0002835 149.4275 210.7066 14.23796512606353 TECHSAT 1B (GO-32) 1 25397U 98043D 10070.09500669 -.00000101 00000-0 -26781-4 0 1324 2 25397 98.3164 82.9393 0001572 149.8021 210.3268 14.23172426606098 SEDSAT 1 (SO-33) 1 25509U 98061B 10070.12812068 .00000226 00000-0 32491-4 0 6665 2 25509 31.4326 343.0406 0354018 152.5739 209.4053 14.28294933594023 PAN SAT (PO-34) 1 25520U 98064B 10069.89073946 .00000639 00000-0 21415-4 0 4476 2 25520 28.4589 268.7352 0005066 329.1035 30.9255 15.17493428629202 ISS (ZARYA) 1 25544U 98067A 10071.37045914 .00015052 00000-0 10816-3 0 7543 2 25544 51.6475 7.6538 0007783 42.0686 51.2387 15.73847817648229 SUNSAT (SO-35) 1 25636U 99008C 10070.76624920 .00000053 00000-0 21325-4 0 5555 2 25636 96.4726 195.6521 0149505 94.4663 267.3631 14.43492055581709 UOSAT 12 (UO-36) 1 25693U 99021A 10070.67223298 .00000112 00000-0 34487-4 0 1461 2 25693 64.5601 14.0605 0026976 323.2065 36.7214 14.78785813587393 OPAL (OO-38) 1 26063U 00004C 10070.10306263 -.00000034 00000-0 87045-5 0 7489 2 26063 100.2275 270.8204 0036651 229.7175 130.0799 14.35887086530257 SAUDISAT 1A (SO-41) 1 26545U 00057A 10070.89124994 .00000051 00000-0 25595-4 0 4797 2 26545 64.5591 12.6255 0050259 237.6605 121.9644 14.80661203510830 TIUNGSAT-1 (MO-46) 1 26548U 00057D 10070.75332655 -.00000027 00000-0 15117-4 0 6368 2 26548 64.5564 332.5307 0043316 236.0178 123.6789 14.83450723511644 SAUDISAT 1B (SO-42) 1 26549U 00057E 10070.92566005 .00000072 00000-0 28866-4 0 5673 2 26549 64.5579 30.6438 0055379 238.8969 120.6700 14.79515038510478 PHASE 3D (AO-40) 1 26609U 00072B 10066.91848493 -.00000090 00000-0 10000-3 0 3630 2 26609 10.1846 340.7330 7960863 291.1909 6.2921 1.25586443 42931 PCSAT (NO-44) 1 26931U 01043C 10070.18899589 -.00000197 00000-0 -44565-4 0 4064 2 26931 67.0516 96.4608 0006520 263.6833 96.3500 14.29585396440749 SAPPHIRE (NO-45) 1 26932U 01043D 10070.63334434 .00000123 00000-0 80247-4 0 4118 2 26932 67.0562 95.3526 0008379 261.8807 98.1339 14.29630371440859 IDEFIX & ARIANE 42P R/B 1 27422U 02021B 10071.22485247 .00000087 00000-0 51513-4 0 2846 2 27422 98.4925 148.9355 0012729 152.3625 207.8227 14.28535694407675 RUBIN-2 & SAFIR-M 1 27605U 02058A 10069.65268782 -.00000137 00000-0 11855-6 0 1344 2 27605 64.5575 281.6572 0036734 124.7160 235.7417 14.72446780388178 SAUDISAT 1C (SO-50) 1 27607U 02058C 10070.07802265 .00000065 00000-0 31996-4 0 1226 2 27607 64.5589 294.5066 0037204 122.8962 237.5743 14.71508405387946 DTUSAT 1 27842U 03031C 10071.02742248 .00000023 00000-0 30617-4 0 7802 2 27842 98.7059 82.2985 0010312 70.7893 289.4397 14.21020857347385 CUTE-1 (CO-55) 1 27844U 03031E 10070.69398388 .00000073 00000-0 54016-4 0 7981 2 27844 98.7142 81.0627 0010916 90.7783 269.4632 14.20689869347248 AAU CUBESAT 1 27846U 03031G 10070.95660324 .00000021 00000-0 29785-4 0 7027 2 27846 98.7038 82.2191 0010351 70.0720 290.1572 14.21020502347370 CANX-1 1 27847U 03031H 10069.49018462 .00000025 00000-0 31868-4 0 7204 2 27847 98.7037 80.7609 0010381 74.9496 285.2849 14.20999416347115 CUBESAT XI-IV (CO-57) 1 27848U 03031J 10070.21633136 -.00000002 00000-0 19561-4 0 7503 2 27848 98.7165 79.6677 0010519 96.0666 264.1693 14.20483991347138 MOZHAYETS 4 (RS-22) 1 27939U 03042A 10070.21145747 .00000027 00000-0 13886-4 0 291 2 27939 97.9075 299.7747 0013862 14.2904 345.8708 14.63389241344629 ECHO (AO-51) 1 28375U 04025K 10070.98517752 .00000036 00000-0 23476-4 0 6248 2 28375 98.0585 70.0354 0085137 32.5566 328.0833 14.40673101299512 HAMSAT (VO-52) 1 28650U 05017B 10070.89007245 -.00000016 00000-0 45242-5 0 4532 2 28650 97.7043 128.0673 0026201 232.9386 126.9406 14.81696584262284 UWE-1 1 28892U 05043C 10070.70130795 .00000143 00000-0 39326-4 0 5767 2 28892 98.0259 317.6602 0016312 228.6443 131.3356 14.59830804232877 SSETI EXPRESS (XO-53) 1 28894U 05043E 10070.26928276 .00000051 00000-0 20220-4 0 7111 2 28894 98.0245 317.4351 0016593 232.7394 127.2297 14.59711985232815 CUBESAT XI-V (CO-58) 1 28895U 05043F 10070.72377681 .00000156 00000-0 42033-4 0 5335 2 28895 98.0283 318.3556 0017074 228.1016 131.8733 14.59857088232765 NCUBE-2 1 28897U 05043H 10071.15977322 .00000171 00000-0 45074-4 0 940 2 28897 98.0260 318.6753 0016255 227.7988 132.1832 14.60041602225122 PEHUENSAT 1 (PO-63) 1 29712U 07001D 10071.22558031 .00000572 00000-0 80503-4 0 1697 2 29712 97.7936 125.7657 0015069 120.5288 239.7427 14.80914826171134 CUTE-1.7+APD II (CO-65) 1 32785U 08021C 10070.71286933 .00000082 00000-0 17151-4 0 6258 2 32785 97.9063 136.9445 0013853 241.1674 118.8134 14.81599748101057 DELFI-C3 (DO-64) 1 32789U 08021G 10070.35414063 .00001078 00000-0 14232-3 0 6273 2 32789 97.9097 136.8939 0014764 240.9945 118.9831 14.82004725101013 YUBILEINY (RS-30) 1 32953U 08025A 10070.41509082 .00000010 00000-0 00000+0 0 5451 2 32953 82.4973 90.4826 0017917 319.6348 40.3402 12.43004146 81596 PRISM 1 33493U 09002B 10071.09596586 .00000551 00000-0 78202-4 0 2863 2 33493 98.0729 189.8333 0021288 95.0503 265.3131 14.80887165 61115 STARS 1 33498U 09002G 10070.32718286 .00000121 00000-0 27535-4 0 477 2 33498 98.0484 181.9496 0012972 188.5609 171.5383 14.71425142 60597 KKS-1 1 33499U 09002H 10071.04902448 .00000086 00000-0 22272-4 0 555 2 33499 98.0491 182.3214 0010176 182.7202 177.3907 14.70763770 60674 ANDE POLLUX SPHERE 1 35693U 09038E 10071.13439775 .00352093 70378-4 41451-3 0 3122 2 35693 51.6322 346.9272 0004482 174.7505 185.3608 16.08028819 35661 ANDE CASTOR SPHERE 1 35694U 09038F 10071.13449218 .00045104 00000-0 15269-3 0 2227 2 35694 51.6393 354.6815 0004216 152.6025 207.5735 15.89444988 35560 SUMBANDILA (SO-67) 1 35870U 09049F 10071.37604285 -.00013700 00000-0 -59129-3 0 5289 2 35870 97.3434 122.9085 0010035 44.7818 10.3723 15.22374556 26737 HOPE-1 (HO-68) 1 36122U 09072B 10070.12163076 -.00000045 00000-0 00000+0 0 1537 2 36122 100.4812 131.5025 0007415 197.7444 162.3422 13.16280125 11317